AirNav   Pilot Hours Calculator
 
 656 users online  

O02 Nervino Airport
Beckwourth, California, USA

GOING TO BECKWOURTH?


FAA INFORMATION EFFECTIVE 02 JANUARY 2020

Location

FAA Identifier: O02
Lat/Long: 39-49-06.7000N 120-21-10.1000W
39-49.111667N 120-21.168333W
39.8185278,-120.3528056
(estimated)
Elevation: 4899.9 ft. / 1493.5 m (surveyed)
Variation: 14E (2015)
From city: 1 mile E of BECKWOURTH, CA
Time zone: UTC -8 (UTC -7 during Daylight Saving Time)
Zip code: 96129

Airport Operations

Airport use: Open to the public
Activation date: 04/1940
Control tower: no
ARTCC: OAKLAND CENTER
FSS: RENO FLIGHT SERVICE STATION
NOTAMs facility: RNO (NOTAM-D service available)
Attendance: 0800-1900
Wind indicator: lighted
Segmented circle: yes
Lights: ACTVT MIRL RY 08/26 - CTAF.
Beacon: white-green (lighted land airport)
Operates sunset to sunrise.

Airport Communications

CTAF/UNICOM: 122.8
WX AWOS-2: 119.35 (530-832-6942)
NORCAL APPROACH: 126.3 [0600-2300]
NORCAL DEPARTURE: 126.3 [0600-2300]
  • FOR CLNC/DEL CALL NORCAL APCH AT 916-361-0596.

Nearby radio navigation aids

VOR radial/distance  VOR name  Freq  Var
AHCr182/28.5AMEDEE VOR/DME109.0017E
FMGr282/36.5MUSTANG VORTAC117.9016E
SWRr338/38.5SQUAW VALLEY VOR/DME113.2016E

Airport Services

Fuel available: 100LL JET-A
Parking: tiedowns
Airframe service: MAJOR
Powerplant service: MAJOR
Bottled oxygen: NONE
Bulk oxygen: NONE

Runway Information

Runway 8/26

Dimensions: 4651 x 75 ft. / 1418 x 23 m
Surface: asphalt, in good condition
Weight bearing capacity: 
Single wheel: 12.0
Runway edge lights: medium intensity
RUNWAY 8  RUNWAY 26
Latitude: 39-49.112112N39-49.110287N
Longitude: 120-21.665400W120-20.672140W
Elevation: 4898.6 ft.4891.1 ft.
Traffic pattern: rightleft
Runway heading: 076 magnetic, 090 true256 magnetic, 270 true
Markings: basic, in good conditionbasic, in good condition
Visual slope indicator: 2-light PAPI on left (3.50 degrees glide path)
Runway end identifier lights: nono
Touchdown point: yes, no lightsyes, no lights
Obstructions: 15 ft. road, 510 ft. from runway, 160 ft. both sides of centerline, 20:1 slope to clear3 ft. fence, 270 ft. from runway, 23:1 slope to clear

Airport Ownership and Management from official FAA records

Ownership: Publicly-owned
Owner: PLUMAS COUNTY
198 ANDY'S WAY
QUINCY, CA 95971
Phone 530-283-6299
Manager: KEVIN CORREIRA
198 ANDY'S WAY
QUINCY, CA 95971
Phone 530-283-6299
FBO PHONE (520) 832-6940.

Airport Operational Statistics

Aircraft based on the field: 6
Single engine airplanes: 6
    
Aircraft operations: avg 33/day *
67% transient general aviation
33% local general aviation
* for 12-month period ending 31 December 2018

Additional Remarks

FOR CD CTC NORCAL APCH AT 916-361-0596.
COLD TEMPERATURE RESTRICTED AIRPORT. ALTITUDE CORRECTION REQUIRED AT OR BELOW -14C.

Instrument Procedures

NOTE: All procedures below are presented as PDF files. If you need a reader for these files, you should download the free Adobe Reader.

NOT FOR NAVIGATION. Please procure official charts for flight.
FAA instrument procedures published for use from 02 January 2020 at 0901Z to 30 January 2020 at 0900Z.

 
IAPs - Instrument Approach Procedures
RNAV (GPS) Y RWY 26   download (287KB)
RNAV (GPS) Z RWY 26   download (307KB)
NOTE: Special Take-Off Minimums/Departure Procedures apply   download (130KB)

Other nearby airports with instrument procedures:

KRTS - Reno/Stead Airport (24 nm E)
KAHC - Amedee Army Airfield (28 nm N)
KTRK - Truckee-Tahoe Airport (31 nm S)
KRNO - Reno/Tahoe International Airport (33 nm SE)
KSVE - Susanville Municipal Airport (35 nm N)
 
Loc | Ops | Rwys | IFR | FBO | Links
Com | Nav | Svcs | Stats | Notes
Area around O02 (Nervino Airport)
 
Road maps at: MapQuest Bing Google
 
Aerial photo
WARNING: Photo may not be current or correct
Aerial photo of O02 (Nervino Airport)
Photo taken 29-May-2014
looking west.

Do you have a better or more recent aerial photo of Nervino Airport that you would like to share? If so, please send us your photo.

 
Sectional chart

 
Airport distance calculator
Flying to Nervino Airport? Find the distance to fly.

From to O02

Sunrise and sunset
Times for 20-Jan-2020
 Local
(UTC-8)
 Zulu
(UTC)
Morning civil twilight06:5014:50
Sunrise07:2015:20
Sunset17:0601:06
Evening civil twilight17:3501:35

Current date and time
Zulu (UTC)  20-Jan-2020 10:30:32
Local (UTC-8)  20-Jan-2020 02:30:32
 
METAR
KRTS 
24nm E 
201015Z AUTO 33004KT 10SM SCT110 M01/M04 A3015 RMK AO2
KTRK 
32nm S 
201015Z AUTO 00000KT 10SM SCT120 M03/M05 A3016 RMK AO2
KRNO 
34nm SE 
200955Z 00000KT 10SM SCT120 BKN150 OVC180 03/M03 A3015 RMK AO2 SLP203 T00281033
KSVE 
34nm N 
201015Z AUTO 00000KT 10SM CLR A3015 RMK AO2
KBLU 
36nm SW 
200952Z AUTO 15004KT 10SM FEW120 08/M09 A3013 RMK AO2 SLP162 T00781089
KGOO 
47nm SW 
201015Z AUTO 00000KT 10SM FEW110 11/M06 A3008 RMK A01
KCXP 
47nm SE 
201015Z AUTO 00000KT 10SM CLR M00/M04 A3015 RMK AO2
TAF
KTRK 
32nm S 
200536Z 2006/2106 00000KT P6SM FEW120 OVC200 FM200900 00000KT P6SM BCFG FEW002 OVC120 FM201500 00000KT P6SM SCT050 BKN100 FM202200 19006KT P6SM VCSH FEW030 BKN050 FM210200 VRB03KT P6SM OVC070
KRNO 
34nm SE 
200536Z 2006/2106 VRB04KT P6SM OVC140 FM202200 21008KT P6SM OVC050 FM210300 VRB03KT P6SM OVC100
NOTAMs
Click for the latest NOTAMs
NOTAMs are issued by the DoD/FAA and will open in a separate window not controlled by AirNav.

 

 
 

FBO, Fuel Providers, and Aircraft Ground Support

  
 Business Name 
 
 Contact 
 
 Services / Description 
 
Fuel Prices
 
Comments
  
Nervino Aero Service 530-832-6940
no information available

If you are affiliated with Nervino Aero Service and would like to show here your services, contact info, web link, logo, and more, click here
100LL Jet A
SS $5.43 $5.10 
 Updated 17-Jan-2020
 
   3 read write
SS=Self service
Update Fuel Prices
 

Would you like to see your business listed on this page?

 If your business provides an interesting product or service to pilots, flight crews, aircraft, or users of the Nervino Airport, you should consider listing it here.  To start the listing process, click on the button below
 
Add a business
 

Other Pages about Nervino Airport

Update a link
 
Copyright © AirNav, LLC. All rights reserved. Privacy Policy  Contact